Location: Unspecified
(48.7670°N, 0.0000°E)
Time: 16:04:02
(UTC+00:00)

Courier 1B - Pass Details

Date: 24 June 2019
Orbit: 962 x 1209 km, 28.3° (Epoch: 21 August)

Event Time Altitude Azimuth Distance (km) Brightness Sun altitude
Rises 20:26:59 0° 239° (WSW) 3,898 10.9 -3.3°
Reaches altitude 10° 20:31:27 10° 214° (SW) 2,998 10.0 -3.9°
Maximum altitude 20:34:39 13° 188° (S) 2,792 9.6 -4.2°
Drops below altitude 10° 20:37:56 10° 162° (SSE) 3,068 9.6 -4.6°
Enters shadow 20:40:32 - 147° (SSE) 3,563 9.8 -4.9°
Sets 20:42:38 0° 138° (SE) 4,069 - -5.2°
